Location: Austin
(30.3000°N, 97.7500°W)
Time: 04:46:50
(UTC-05:00)

Orbus 7S? - Visible Passes

Search period start: 09 October 2024 00:00
Search period end: 19 October 2024 00:00
Orbit: 365 x 6246 km, 56.9° (Epoch: 03 July)

Date Brightness Start Highest point End Pass type
(mag) Time Alt. Az. Time Alt. Az. Time Alt. Az.
09 Oct 7.7 01:36:41 10° WSW 02:16:13 52° NNW 02:31:03 10° NNE visible
09 Oct 7.8 04:54:05 11° WNW 05:07:22 21° NNW 05:15:26 10° NNE visible
09 Oct 8.9 20:01:45 10° ESE 20:11:20 13° ESE 20:11:20 13° ESE visible
09 Oct 8.2 22:23:18 10° S 23:19:02 30° NE 23:25:56 10° NE visible
10 Oct 7.7 01:15:09 10° SW 01:56:54 54° NNW 02:11:09 10° NNE visible
10 Oct 7.9 04:34:45 14° NW 04:46:45 22° NNW 04:55:30 10° NNE visible
10 Oct 8.9 19:48:31 10° ESE 19:54:46 11° E 19:54:46 11° E visible
10 Oct 8.2 22:03:18 10° S 22:59:38 27° NE 23:05:43 10° NE visible
11 Oct 7.7 00:53:43 10° SW 01:37:28 55° NNW 01:51:13 10° NNE visible
11 Oct 7.9 04:15:18 17° NW 04:26:05 23° NNW 04:35:33 10° NNE visible
11 Oct 6.7 07:10:38 10° NNW 07:18:47 23° NNE 07:23:10 10° ENE visible
11 Oct 8.1 21:43:23 10° S 22:40:06 24° NE 22:45:26 10° NE visible
12 Oct 7.7 00:32:23 10° SW 01:17:55 55° N 01:31:14 10° NNE visible
12 Oct 7.9 03:55:45 19° NW 04:05:23 25° NNW 04:15:35 10° NNE visible
12 Oct 6.8 06:50:05 10° NNW 06:58:29 22° NNE 07:03:04 10° ENE visible
12 Oct 8.1 21:23:32 10° S 22:00:15 51° ESE 22:25:05 10° NE visible
13 Oct 7.7 00:11:08 10° SW 00:58:12 56° N 01:11:14 10° NNE visible
13 Oct 8.0 03:36:01 22° NW 03:44:38 26° NNW 03:55:36 10° NNE visible
13 Oct 7.0 06:29:25 10° NNW 06:38:08 21° NNE 06:42:55 10° ENE visible
13 Oct 8.1 21:03:46 10° S 21:39:42 48° ESE 22:04:40 10° NE visible
13 Oct 7.7 23:50:00 10° SW 00:38:13 56° N 00:51:12 10° NE visible
14 Oct 8.0 02:59:53 10° W 03:23:51 28° NNW 03:35:36 10° NNE visible
14 Oct 7.1 06:08:38 10° NNW 06:17:44 21° NNE 06:22:45 10° ENE visible
14 Oct 8.2 20:44:06 10° S 21:19:09 45° ESE 21:44:11 10° NE visible
14 Oct 7.7 23:28:56 10° SW 00:17:38 58° N 00:31:07 10° NE visible
15 Oct 8.0 02:37:11 10° W 03:03:01 30° NNW 03:15:34 10° NNE visible
15 Oct 7.2 05:47:43 10° NNW 05:57:16 21° N 06:02:33 10° ENE visible
15 Oct 8.3 20:24:31 10° SSE 20:58:37 41° ESE 21:23:35 10° NE visible
15 Oct 7.8 23:07:58 10° SW 23:48:41 78° NW 00:11:01 10° NE visible
16 Oct 8.0 02:14:30 10° W 02:42:10 32° NNW 02:55:32 10° NNE visible
16 Oct 7.3 05:26:40 10° NW 05:36:45 20° N 05:42:20 10° NE visible
16 Oct 8.4 20:05:03 10° SSE 20:38:06 38° ESE 21:02:54 10° NE visible
16 Oct 7.9 22:47:04 10° SW 23:27:53 82° NW 23:50:52 10° NE visible
17 Oct 8.1 01:51:51 10° W 02:21:18 34° NNW 02:35:28 10° NNE visible
17 Oct 7.4 05:05:27 10° NW 05:16:12 20° N 05:22:06 10° NE visible
17 Oct 8.5 19:45:42 10° SSE 20:17:36 35° ESE 20:42:06 10° NE visible
17 Oct 7.9 22:26:15 10° SSW 23:07:03 86° WNW 23:30:41 10° NE visible
18 Oct 8.1 01:29:16 10° W 02:00:22 36° NW 02:15:22 10° NNE visible
18 Oct 7.5 04:44:04 10° NW 04:55:33 20° N 05:01:50 10° NE visible
18 Oct 8.6 19:26:30 10° SSE 19:57:07 32° ESE 20:21:11 10° NE visible
18 Oct 7.9 22:05:30 10° SSW 22:46:12 90° ESE 23:10:27 10° NE visible
